Location: *
(13.0000°N, 151.6000°E)
Time: 15:33:44
(UTC+00:00)

METEOR-M - Pass Details

Date: 01 April 2020
Orbit: 816 x 819 km, 98.4° (Epoch: 03 June)

Event Time Altitude Azimuth Distance (km) Brightness Sun altitude
Rises 18:59:31 0° 5° (N) 3,337 7.5 -12.9°
Reaches altitude 10° 19:01:53 10° 2° (N) 2,405 6.7 -12.3°
Maximum altitude 19:07:06 60° 284° (WNW) 934 4.2 -11.0°
Drops below altitude 10° 19:12:21 10° 204° (SSW) 2,405 6.3 -9.8°
Sets 19:14:43 0° 201° (SSW) 3,337 7.0 -9.2°
